Location: Esp�n
(42.4593°N, 0.2047°W)
Time: 20:47:47
(UTC+00:00)

Nadezhda 1 Rocket - Pass Details

Date: 07 June 2020
Orbit: 942 x 1004 km, 83.0° (Epoch: 13 July)

Event Time Altitude Azimuth Distance (km) Brightness Sun altitude
Rises 00:15:13 0° 350° (N) 3,672 8.3 -24.7°
Reaches altitude 10° 00:17:43 10° 350° (N) 2,730 7.3 -24.6°
Maximum altitude 00:23:58 78° 265° (W) 1,010 3.9 -24.5°
Enters shadow 00:25:28 54° 193° (SSW) 1,181 4.0 -24.5°
